www.pogodaiklimat.ru

Погода и климат >> Архив погоды >> Канада >> Windsor


ПОГОДА в Windsor

  • Прогноз погоды в Windsor
  • Монитор погоды в Windsor
  • Климат города

АРХИВ ПОГОДЫ в Windsor

Время (UTC), дата Ветер
(напр.,м/с)
 
Видим.   Явления Облачность Т
(С)
Тd
(С)
f
(%)
Тe
(С)
Тes
(С)
Комфортность P
(гПа)
Po
(гПа)
Тmin
(С)
Tmax
(С)
R
(мм)
R24
(мм)
S
(см)
00 14.05 Ю 3 19 км 8/4 600 м
[Sc Cs]
+14.7 +12.4 86 +14 +14 1015.3 992.5 +6.4 +16.7
03 14.05 Ю 2 19 км ясно +11.4 +10.6 95 +10 +10 1015.0 992.2
06 14.05 ЮЗ 3 19 км ясно +10.8 +10.4 97 +9 +9 1015.5 992.7 +6.4 +16.7
09 14.05 ЮВ 1 12 км ясно +8.9 +8.6 98 +8 +8 1014.3 991.6
12 14.05 С 1 4800 м дымка 10/0
[Ac As Cs]
+12.1 +11.7 97 +13 +14 1014.8 992.1 +8.8 +16.7
15 14.05 С 1 2800 м 10/10 600 м
[]
+14.8 +14.0 95 +16 +16 1015.8 993.1
18 14.05 ЮЗ 5 6000 м в посл. час дождь {гроза, ливн. осадки} 10/3 100 м
[Cu hum Ac As Cs]
+17.7 +16.2 91 +17 +21 1014.1 991.4 +8.8 +17.7 4
21 14.05 ЮЗ 6 19 км 9/0
[]
+21.5 +17.4 77 +26 +28 душно 1011.4 988.8
00 15.05 Ю 4 11 км 9/0
[Cs]
+20.9 +18.2 85 +25 +25 комфорт 1011.3 988.8 +8.8 +21.7
03 15.05 Ю 3 19 км 4/4 1500 м
[]
+17.9 +16.6 92 +18 +18 1010.4 987.9
06 15.05 З 4 19 км в посл. час ливневой дождь {гроза} 5/0
[Ac cuf]
+17.8 +16.5 92 +18 +18 1009.7 987.3 +8.8 +21.7 6 6
09 15.05 Ю 3 19 км 8/0
[]
+16.8 +15.8 94 +17 +17 1008.7 986.4
12 15.05 З 2 16 км {гроза, ливн. осадки} 10/1 300 м
[Cu hum As op]
+17.5 +16.2 92 +18 +18 1010.1 987.7 +15.9 +21.7 7
15 15.05 С 5 9000 м 10/10 300 м
[]
+16.8 +15.7 93 +16 +16 1012.8 990.3
18 15.05 СВ 6 24 км {дождь, морось} 6/1 600 м
[Cu hum Ac trans]
+19.3 +14.7 75 +20 +25 1014.7 992.2 +15.9 +19.6 2
21 15.05 В 3 19 км 9/9 600 м
[]
+20.5 +13.2 63 +23 +24 комфорт 1015.3 992.8
00 16.05 В 5 19 км 8/1 1000 м
[Sc Cc]
+18.3 +13.4 73 +18 +19 1015.1 992.6 +15.9 +20.9
03 16.05 СВ 5 24 км 4/0
[]
+11.3 +5.3 67 +9 +9 1017.9 995.2
06 16.05 СВ 2 19 км 3/0
[Cc]
+10.1 +5.6 74 +9 +9 1017.4 994.7 +9.9 +20.9 8
09 16.05 СВ 2 19 км 3/0
[]
+9.2 +6.7 84 +8 +8 1016.8 994.1
12 16.05 СВ 4 24 км 9/0
[Ci fib]
+12.2 +8.9 80 +10 +12 1017.6 994.9 +8.6 +20.9
15 16.05 СВ 3 24 км 10/0
[]
+17.2 +12.4 73 +17 +23 1017.4 994.7
18 16.05 В 2 24 км 10/0
[Ci fib]
+21.9 +12.4 55 +24 +39 комфорт 1016.1 993.5
21 16.05 В 3 24 км 6/0
[]
+23.7 +9.4 40 +25 +31 комфорт 1014.8 992.2
00 17.05 Ю 3 24 км 8/0
[Ci fib]
+20.4 +14.0 67 +23 +23 комфорт 1014.8 992.2 +8.6 +23.8
03 17.05 З 2 24 км 6/0
[]
+15.4 +12.9 85 +15 +15 1015.8 993.2
06 17.05 С 1 19 км 4/0
[Ci sp]
+13.8 +11.3 85 +15 +15 1015.7 993.2 +8.6 +23.8
09 17.05 ЮЗ 1 19 км 5/0
[]
+11.3 +10.8 97 +11 +11 1015.2 992.7
12 17.05 штиль 0 12 км 3/0
[Ci fib]
+16.1 +13.4 84 +16 +19 1016.7 994.2 +10.5 +23.8
15 17.05 СВ 5 19 км 6/0
[]
+20.0 +13.3 65 +22 +27 комфорт 1018.0 995.4
18 17.05 СВ 6 24 км 10/0
[Ci fib]
+22.8 +13.0 54 +26 +31 жарко 1018.7 996.1 +10.5 +23.0
21 17.05 СВ 8 24 км 10/0
[]
+20.2 +9.8 51 +21 +22 комфорт 1018.6 995.9
00 18.05 СВ 7 24 км 10/0
[Cs]
+15.8 +7.9 59 +14 +14 1019.5 996.8 +10.5 +23.1
03 18.05 С 8 24 км 5/0
[]
+13.5 +6.0 60 +11 +11 1021.1 998.4
06 18.05 СВ 8 24 км ясно +11.9 +5.9 67 +9 +9 1021.1 998.4 +10.5 +23.1 31
09 18.05 СВ 6 24 км 8/0
[]
+11.7 +6.1 68 +9 +9 1020.4 997.7
12 18.05 СВ 6 24 км 9/0
[Cc]
+12.9 +7.2 68 +11 +11 1022.3 999.5 +10.7 +23.1
15 18.05 В 9 24 км 10/0
[]
+16.6 +6.1 50 +15 +16 1022.3 999.5
18 18.05 В 9 24 км 9/0
[Ci fib]
+20.6 +9.7 50 +22 +24 комфорт 1020.7 998.0 +10.7 +20.7
21 18.05 В 8 24 км 10/0
[]
+20.9 +9.5 48 +22 +23 комфорт 1019.0 996.3
00 19.05 В 6 24 км 10/0
[As op Ci fib]
+18.9 +8.2 50 +19 +19 1018.2 995.5 +10.7 +22.2
03 19.05 В 7 24 км 10/0
[]
+16.2 +7.0 54 +15 +15 1017.8 995.2
06 19.05 В 5 24 км слабый ливневой дождь 10/9 1500 м
[Cu hum Ac As]
+14.7 +9.4 71 +13 +13 1015.9 993.3 +10.7 +22.2 0.0 191
09 19.05 В 4 24 км 9/9 1000 м
[]
+14.0 +12.4 90 +13 +13 1014.2 991.7
12 19.05 ЮВ 4 12 км {ливн. осадки} 10/10 600 м
[Cu Sc]
+14.8 +13.5 92 +14 +14 1013.5 991.0 +13.6 +22.2 0.4
15 19.05 Ю 5 24 км 9/9 600 м
[]
+19.1 +16.4 84 +20 +21 1011.9 989.4
18 19.05 ЮЗ 5 24 км {ливн. осадки} 9/9 600 м
[Cb calv]
+23.8 +19.1 75 +29 +30 душно 1010.4 988.0 +13.6 +24.4 0.0
21 19.05 Ю 4 19 км 9/9 1000 м
[]
+21.4 +20.0 92 +27 +27 душно 1009.1 986.7
00 20.05 ЮЗ 5 9000 м слабый ливневой дождь {гроза} 10/10 300 м
[Frnb Ac As]
+20.2 +19.3 95 +24 +24 комфорт 1009.9 987.5 +13.6 +24.8 5
03 20.05 СЗ 4 19 км 10/10 600 м
[]
+19.7 +17.3 86 +22 +22 комфорт 1012.0 989.6
06 20.05 СЗ 6 19 км {ливн. осадки} 10/10 300 м
[Sc]
+17.7 +15.7 88 +17 +17 1014.1 991.7 +13.6 +24.8 4 17
09 20.05 СВ 5 6000 м 10/10 <50 м
[]
+13.3 +12.7 96 +11 +11 1016.3 993.7
12 20.05 В 2 16 км в посл. час морось 10/10 100 м
[St]
+12.9 +12.2 96 +12 +12 1018.5 995.8 +12.2 +24.8 0.2
15 20.05 СВ 4 19 км 10/10 300 м
[]
+15.5 +12.6 83 +14 +14 1020.6 997.9
18 20.05 СВ 4 24 км 10/10 600 м
[Sc]
+16.3 +12.5 78 +16 +16 1021.9 999.2 +12.2 +18.1

 

Местоположение метеостанции Windsor (Канада): широта 42.27 долгота -82.96 высота над уровнем моря 190 м.

В архиве по умолчанию представлена погода в Windsor за последнюю неделю. Архивные данные за месяц целиком и за предыдущие месяцы, начиная с января 2011 года, Вы можете получить, выбрав интересующий диапазон дат из раскрывающегося списка и нажав кнопку "Ввод!".


*Определитесь, кто Вы:
робот инопланетянин человек

Внимание! Время в таблицах - всемирное. Для получения местного времени необходимо прибавить поправку, которая в Windsor равна -5 ч.

Смотрите также архив погоды в соседних городах и на ближайших метеорологических станциях:

Погода в Harrow On (Канада) (27 км)
Погода в Point Pelee (Канада) (51 км)
Погода в Southeast Shoal (Канада) (64 км)
Погода в Erieau (Канада) (87 км)
Погода в Ridgetown Rcs (Канада) (91 км)
Погода в Sarnia Airport (Канада) (97 км)
Погода в Sarnia Climate (Канада) (98 км)
Погода в London Cs (Канада) (170 км)
Погода в London (Канада) (170 км)
Погода в Goderich (Канада) (195 км)

Пояснения к столбцам:

Ветер - указаны скорость ветра в м/с - средняя за 10 мин, порывы в срок и между сроками (в фигурных скобках) и направление, откуда дует ветер: С - северный, СВ - северо-восточный, В - восточный, ЮВ - юго-восточный, Ю - южный, ЮЗ - юго-западный, З - западный, СЗ - северо-западный.
Видимость - горизонтальная дальность видимости в метрах или километрах. При видимости от 1 до 10 км при отсутствии осадков обычно наблюдается дымка, при ухудшении видимости до 1 км и менее - туман. В сухую погоду видимость может ухудшаться дымом, пылью или мглою.
Явления - указаны атмосферные явления, наблюдавшиеся в срок или в последний час перед сроком; фигурными скобками обозначены явления, наблюдавшиеся между сроками (за 1-3 часа до срока); квадратными скобками обозначены град или гололедные отложения с указанием их диаметра в мм.
Облачность - указаны через наклонную черту общая и нижняя облачность в баллах и высота нижней границы облаков в метрах; квадратными скобками обозначены формы облаков: Ci - перистые, Cs - перисто-слоистые, Cc - перисто-кучевые, Ac - высококучевые, As - высокослоистые, Sc - слоисто-кучевые, Ns - слоисто-дождевые, Cu - кучевые, Cb - кучево-дождевые. Подробнее классификацию облаков см. в Атласе облаков (PDF).
T - Температура воздуха - температура, измеренная на высоте 2 м над землей.
Td - Температура точки росы - температура, при понижении до которой содержащийся в воздухе водяной пар достигнет насыщения.
f - Относительная влажность воздуха - влажноcть воздуха, измеренная на высоте 2 м над землей.
Te - Эффективная температура - температура, которую ощущает одетый по сезону человек в тени. Характеристика душности погоды. При расчете учитывается влияние влажности воздуха и скорости ветра на теплоощущения человека.
Tes - Эффективная температура на солнце - температура, которую ощущает человек, с поправкой на солнечный нагрев. Характеристика знойности погоды. Зависит от высоты солнца над горизонтом, облачности и скорости ветра. Ночью, в пасмурную погоду, а также при ветре 12 м/с и более поправка равна нулю.
P - Атмосферное давление - приведенное к уровню моря атмосферное давление.
Po - Атмосферное давление - измеренное на уровне метеостанции атмосферное давление.
Tmin - Минимальная температура - минимум температуры воздуха на высоте 2 м над землей.
Tmax - Максимальная температура - максимум температуры воздуха на высоте 2 м над землей.
R - Количество осадков - Количество выпавших осадков за период времени, мм. При наведении курсора мыши на число - период времени, за который выпало указанное количество осадков.
R24 - Количество осадков - Количество выпавших осадков за 24 часа, мм.
S - Снежный покров - Высота снежного покрова, см. При наведении курсора мыши на число - состояние снежного покрова и степень покрытия местности в баллах.